Lid_Strength_Index
3 6 6 7 11 11 12 11 9 9 9 6 5 7 8 7 9 11 1 0 -0 -0 -1 -1 -1 -2 -1 -1 -2 -2 -2 -2 -2 -2 -2 -2 -2 -2 -2 -2 -3 -2 -2 -2 -2 -2 -2 -2 -2
6 6 7 10 13 14 13 10 10 8 7 6 6 6 7 8 5 4 3 -0 -1 -1 -1 -1 -1 -2 -1 -2 -2 -2 -2 -2 -2 -2 -2 -2 -2 -2 -2 -2 -2 -2 -2 -2 -2 -2 -2 -2 -2
5 7 8 12 14 14 13 11 9 7 6 6 7 5 6 7 4 3 1 -0 -1 -1 -1 -1 -1 -2 -2 -2 -2 -2 -2 -2 -2 -2 -2 -2 -2 -2 -2 -2 -2 -2 -2 -2 -2 -2 -2 -2 -2
7 7 9 12 13 12 11 10 7 8 6 5 6 8 5 2 3 1 -0 -0 -0 -1 -1 -1 -1 -2 -2 -2 -2 -2 -2 -2 -2 -2 -2 -2 -2 -2 -2 -2 -2 -2 -2 -2 -2 -2 -2 -2 -2
7 9 12 13 12 12 11 9 7 8 7 7 6 8 7 3 1 0 0 -0 0 -0 -1 -1 -1 -1 -2 -2 -2 -2 -2 -2 -2 -2 -2 -2 -2 -2 -2 -2 -2 -2 -2 -2 -2 -2 -2 -2 -2
8 10 13 14 12 12 9 9 8 8 7 7 7 7 7 2 2 1 0 0 -0 -0 -1 -1 0 -0 -1 -2 -2 -2 -2 -2 -2 -2 -2 -2 -2 -2 -2 -2 -2 -2 -2 -2 -2 -2 -2 -2 -2
8 10 12 12 12 12 10 9 9 7 7 7 5 8 6 4 2 1 1 0 -0 -1 -1 -1 -1 -0 0 -0 -1 -1 -2 -2 -2 -2 -2 -2 -2 -2 -2 -2 -2 -2 -2 -2 -2 -2 -2 -2 -2
7 8 11 11 12 13 10 9 9 7 7 4 4 8 8 4 2 2 1 1 0 -0 -1 -1 -0 0 -0 -1 0 -0 -2 -1 -1 -1 -1 -1 -1 -1 -1 -1 -2 -2 -2 -2 -2 -2 -2 -2 -2
5 11 13 11 11 12 10 11 9 7 6 5 5 5 4 3 2 3 2 1 1 0 -0 -1 -0 0 0 0 1 -0 0 0 0 0 1 0 -1 -1 -1 -1 -2 -2 -2 -2 -2 -2 -2 -2 -2
8 11 11 8 8 10 9 11 10 7 7 7 6 4 3 3 3 4 3 3 2 1 1 -0 -0 -0 -0 -0 -1 -1 -1 -0 -0 -1 -1 -1 -1 -1 -1 0 -0 -1 -1 -2 -2 -1 -1 -0 -1
8 11 8 8 7 7 8 11 10 9 9 7 7 6 4 4 3 4 3 2 2 1 2 -0 -0 -1 -1 -1 -1 -1 -0 0 0 -0 -1 -1 0 -0 -1 -1 -1 -1 1 -0 -0 -0 -0 -0 -1
10 8 7 7 6 7 8 9 11 9 8 8 5 4 4 4 4 3 3 2 2 1 2 0 -0 -0 -0 -0 -0 -0 0 0 1 0 -0 -0 -0 -0 -1 -1 -0 -0 0 0 0 -0 0 0 0
9 8 7 6 7 7 7 8 8 11 9 8 4 4 4 4 4 3 3 3 2 2 1 0 0 -0 -0 -0 -0 -0 0 0 0 0 -0 -0 -0 -0 -0 -0 -0 0 0 0 0 0 1 1 1
7 8 8 7 7 7 8 9 11 9 9 7 5 5 4 4 4 3 3 3 3 2 1 0 1 -0 -0 -0 -0 -0 0 0 0 0 -0 -0 -0 -0 -0 -0 0 -0 0 -0 0 1 1 1 1
7 10 9 8 7 8 9 10 12 9 8 8 6 5 5 4 3 3 3 3 3 2 1 0 1 0 -0 -0 -0 0 0 1 1 0 -0 -0 -0 0 0 0 0 0 -0 0 0 1 2 2 1
10 10 14 9 8 8 8 13 9 9 9 9 7 6 5 4 4 3 3 2 2 2 2 1 -0 0 0 -0 -0 -0 0 0 0 0 -0 -0 -0 -0 -0 0 1 0 0 0 1 1 2 2 1
11 15 14 12 8 10 10 12 8 7 11 10 10 7 5 5 4 3 3 2 2 2 2 2 1 0 0 -0 -0 -0 -0 0 0 0 -0 -0 -0 -0 -0 0 0 1 1 1 1 2 2 2 1
15 15 14 14 10 11 13 13 10 9 11 10 10 9 7 6 5 3 3 3 2 2 2 2 2 1 0 -0 -0 -0 -0 -0 -0 -0 -0 -0 -1 -0 0 0 0 1 1 2 2 2 2 1 1
11 13 14 12 9 11 11 12 10 9 11 12 11 12 10 7 5 4 2 2 3 2 2 2 2 2 2 1 1 1 1 1 0 -0 -1 -1 -0 0 0 0 0 0 1 2 2 2 2 2 1
12 13 14 11 9 10 11 13 11 10 11 10 10 10 11 10 8 5 4 2 2 3 2 2 1 1 2 1 1 1 1 1 1 -0 0 0 0 0 0 0 0 1 1 2 2 2 2 2 1
12 13 13 13 11 10 11 13 12 11 10 10 10 9 9 9 9 9 6 3 2 2 2 2 2 1 1 1 1 2 1 2 1 1 1 1 0 1 1 1 0 1 1 1 2 2 3 2 2
14 10 11 12 13 17 11 18 13 12 11 11 10 10 9 10 9 9 9 6 3 2 1 2 2 1 1 1 1 1 2 2 1 1 1 1 1 1 1 1 1 1 1 1 1 1 2 2 2
13 9 11 11 13 14 14 17 14 12 13 11 10 9 9 8 9 9 9 9 5 3 2 2 2 2 1 1 1 1 2 1 1 1 1 1 1 1 1 1 1 1 1 1 1 2 2 2 1
9 11 11 12 13 19 15 16 15 13 12 11 10 10 9 8 9 8 7 7 8 4 3 2 2 3 2 1 1 1 2 1 2 2 2 2 1 1 1 1 1 1 0 1 1 1 1 2 1
11 14 19 20 20 20 14 16 14 12 12 11 10 10 9 9 9 8 8 9 9 7 4 3 3 3 2 3 2 1 1 1 2 2 2 2 2 2 2 1 1 1 0 0 1 1 1 2 2
13 14 18 22 22 19 15 18 14 10 8 8 8 10 11 11 11 10 9 9 9 8 5 3 3 3 3 3 2 1 1 1 2 2 2 2 2 2 2 2 1 1 1 1 1 1 1 1 2
13 15 12 17 20 20 17 15 12 12 11 11 11 11 11 11 12 12 11 10 10 9 7 4 4 3 3 3 3 2 2 2 2 2 2 2 2 2 2 2 2 2 2 1 1 1 2 2 2
11 10 17 16 21 22 18 17 15 14 10 8 9 11 10 11 11 12 12 12 11 11 8 6 4 3 3 3 2 2 2 2 2 3 3 2 2 2 2 2 2 2 2 2 2 2 2 2 2
13 14 14 14 16 20 21 17 14 12 11 9 8 9 11 11 11 11 13 14 13 12 11 7 5 5 4 3 3 2 3 3 2 3 3 2 2 3 3 3 3 2 3 3 3 2 2 3 3
10 12 12 17 19 17 17 17 13 11 11 11 10 10 11 11 11 12 14 14 14 13 12 11 7 5 4 4 4 3 4 3 3 3 3 3 3 3 2 2 3 2 2 2 3 3 3 3 4